IRIDIUM 47 [B]

Last updated on Thu Aug 16 2018 00:20:34 GMT+0000 (Coordinated Universal Time)

1 25106U 97082C 18227.11094677 -.00000025 00000-0 -14584-4 0 9990 2 25106 86.4186 78.1210 0001930 82.6227 277.5191 14.38605360 81162
UTC large
Height (km)
Speed (km/s)
/
Latitude / Longitude
Inclination (degrees)
Orbital Period (minutes)
Azimuth
Elevation
Range (km)
Doppler Factor

Next 0 passes for location: London (51.5072 / 0.1276)

Sorry there are no passes over London.